Regional Weather Roundup
Issued by NWS

Home | Current Version | Previous Version | Graphics & Text | Print | Product List | Glossary On
Versions: 1 2 3 4 5 6 7 8 9 10 11 12 13 14 15 16 17 18 19 20 21 22 23 24 25 26 27 28 29 30 31 32 33 34 35 36 37 38 39 40 41 42 43 44 45 46 47 48 49 50
896
ASUS45 KBOU 061607
RWRCO

WEATHER ROUNDUP FOR COLORADO
NATIONAL WEATHER SERVICE DENVER/BOULDER CO
900 AM MST TUE DEC 06 2016

NOTE: "FAIR" INDICATES FEW OR NO CLOUDS BELOW 12000 FEET WITH NO
SIGNIFICANT WEATHER AND/OR OBSTRUCTIONS TO VISIBILITY.

COZ001>005-013-030-031-061700-
...NORTHWEST COLORADO...

CITY           SKY/WX    TMP DP  RH WIND       PRES   REMARKS
CRAIG          CLOUDY     8  -4  58 E9        29.90F WCI  -5
HAYDEN         PTSUNNY    3  -8  60 E10       29.88S WCI -12
MEEKER         PTSUNNY   10   2  69 CALM      29.87S
MOUNT WERNER   NOT AVBL
STEAMBOAT SPGS CLOUDY    -3 -11  70 CALM      29.88S
WALDEN           N/A     -4 -15  59 CALM      29.83F
$$

COZ006>008-011-061700-
...WEST CENTRAL VALLEYS...

CITY           SKY/WX    TMP DP  RH WIND       PRES   REMARKS
GRAND JUNCTION CLOUDY    24   8  50 E12       29.89F WCI  13
MONTROSE       FAIR      20  10  65 SE3       29.92S
EAGLE          PTSUNNY   16   1  53 W7        29.90S WCI   6
RIFLE          PTSUNNY   20   9  62 CALM      29.91S
DELTA          NOT AVBL
NUCLA          NOT AVBL
$$

COZ017>023-064>068-061700-
...SOUTHWEST COLORADO...

CITY           SKY/WX    TMP DP  RH WIND       PRES   REMARKS
DURANGO        CLOUDY    25  16  68 NE7       29.89S WCI  17
CORTEZ         PTSUNNY   30  21  69 NE7       29.86F WCI  23
PAGOSA SPRINGS FAIR      23  13  67 CALM      29.92R
TELLURIDE      CLOUDY    29   8  41 SW15G35   29.87R WCI  17
WOLF CREEK PAS CLOUDY    10   9  92 S13G23    29.89R WCI  -5
$$

COZ009-010-012-014-032>034-037-058>063-061700-
...CENTRAL COLORADO...

CITY           SKY/WX    TMP DP  RH WIND       PRES   REMARKS
ASPEN          PTSUNNY   14   7  73 CALM      29.81F
BUENA VISTA    CLOUDY    20  -1  41 SE8       29.79F WCI  10
COPPER MTN     PTSUNNY   12   0  57 MISG      29.71R
BERTHOUD PASS  LGT SNOW   1  -9  60 W24G40    29.64S VSB 3/4 WCI -22
COTTONWOOD PAS CLOUDY    27   1  33 NW7       29.76S WCI  19
GUNNISON       FLURRIES   8   2  76 VRB3      29.88S
KREMMLING      PTSUNNY   12   5  73 CALM      29.89S
LEADVILLE      CLOUDY    14   0  53 CALM      29.74R
MONARCH PASS   CLOUDY     9   5  85 SW24G35   29.85S WCI -12
SALIDA         FAIR      16   0  47 SE14G24   29.90F WCI   2
SUNLIGHT       CLOUDY    10   7  85 SW16G28   29.78S FOG     WCI  -7
WILKERSON PASS PTSUNNY   14   1  57 SW12G23   29.76R WCI   0
$$

COZ069>075-061700-
...SAN LUIS VALLEY/SANGRE DE CRISTO MOUNTAINS...

CITY           SKY/WX    TMP DP  RH WIND       PRES   REMARKS
ALAMOSA        FAIR      17  10  74 MISG      29.85R
LA VETA PASS   FAIR      27   3  36 NE13G24   29.83S WCI  16
SAGUACHE       FAIR      18   5  57 NW12      29.85F WCI   5
$$

COZ035-036-038>040-061700-
...NORTHERN COLORADO FRONT RANGE...

CITY           SKY/WX    TMP DP  RH WIND       PRES   REMARKS
DENVER INTL AP FAIR      23   2  40 SE18      29.91F WCI   9
DMNS CITY PARK   N/A     21   1  41 SE10G21   29.92S WCI  10
AURORA         MOSUNNY   19   2  46 SE17      29.91F WCI   4
FRONT RANGE AP MOSUNNY   21   1  42 S10       29.93S WCI  10
ERIE MUNI ARPT FAIR      23  -2  33 S3        29.94S
BOULDER MUN AP FAIR      21   0  39 N6        29.93S WCI  14
CENTENNIAL     FAIR      18   2  49 SE10      29.89F WCI   6
BROOMFIELD     MOSUNNY   21  -2  35 SE7       29.91S WCI  13
FORT COLLINS   FAIR      18   0  45 N5        29.96S WCI  11
LONGMONT       FAIR      24   1  37 NE3       29.96S
$$

COZ041-046-047-076>085-087-088-061700-
...PIKES PEAK/PALMER DIVIDE AND SOUTHERN FOOTHILLS...

CITY           SKY/WX    TMP DP  RH WIND       PRES   REMARKS
COLO. SPRINGS  FAIR      18   1  47 S18       29.94R WCI   2
A. F. ACADEMY  FAIR      16   1  51 SE13      29.89S WCI   3
SCHRIEVER AFB  NOT AVBL
ELLICOTT       FAIR     N/A N/A N/A MISG        N/A
FALCON         FAIR      15   2  56 S17G24    29.91S WCI  -2
FORT CARSON    FAIR      20   1  44 SE17      29.93S WCI   5
LIMON          FAIR      14   6  70 CALM      29.98S
MONUMENT HILL  FAIR      14   1  57 S21G26    29.86F WCI  -4
TRINIDAD       FAIR      20  -1  40 E8        29.97S WCI  10
$$

COZ042>045-048>051-090-091-061700-
...NORTHEAST COLORADO...

CITY           SKY/WX    TMP DP  RH WIND       PRES   REMARKS
GREELEY ARPT   FAIR      15   2  56 CALM      29.99S
AKRON          FAIR      18   0  45 W10       29.99R WCI   6
BURLINGTON     FAIR      19   7  59 SW7       30.04R WCI  10
WRAY           FAIR      23   9  54 W10       30.05S WCI  12
STERLING       FAIR      18   7  62 SW5       30.02R WCI  11
HOLYOKE        FAIR      25  10  54 W12       30.03S WCI  14
FORT MORGAN    PTSUNNY   16   3  58 CALM      30.02R
$$

COZ086-089-092>099-061700-
...SOUTHEAST COLORADO...

CITY           SKY/WX    TMP DP  RH WIND       PRES   REMARKS
PUEBLO         FAIR      19   5  54 CALM      30.03R
LA JUNTA       FAIR      23   9  55 CALM      30.07R
LAMAR          FAIR      20  10  65 VRB3      30.08S
SPRINGFIELD      N/A     24   6  46 CALM      30.06R
$$




USA.gov is the U.S. government's official web portal to all federal, state and local government web resources and services.